{"data":{"norad_id":57206,"intl_designator":"2023-091AS","name":"2023-091AS","alt_names":[],"object_type":"PAYLOAD","status":"ACTIVE","operator":null,"country":"CIS","launch_date":"2023-06-27","launch_site_code":"VOSTO","launch_vehicle":null,"mission":null,"orbit_class":"UNKNOWN","rcs_meters":null,"size_class":null,"mass_kg":null,"dimensions":null,"purposes":[],"wikipedia_slug":null,"has_3d_model":false,"image_url":null,"decayed_at":null,"tle_current":{"epoch":"2026-09-21T20:20:32.832672Z","epoch_age_seconds":88702,"freshness":"FRESH","line1":"1 57206U 23091AS  26264.84760223  .00280992  30742-4  98265-3 0  9990","line2":"2 57206  97.4895 352.1428 0003516 265.2618  94.8252 15.89262164180591","mean_motion":15.89262164,"eccentricity":0.0003516,"inclination_deg":97.4895,"raan_deg":352.1428,"arg_perigee_deg":265.2618,"mean_anomaly_deg":94.8252,"bstar":0.00098265,"rev_number":18059,"period_min":90.608084217879,"perigee_km":302.00078619134,"apogee_km":306.69991129497,"semimajor_km":6682.4873487432,"source":"CELESTRAK","updated_at":"2026-09-22T09:00:26.083117Z"}}}